Weather in Vozdvizhenskoye

Russia / Stavropol Krai     45°49′52″N   43°39′06″E
temp.,
°C
wind,
m/s
gust,
m/s
humid.,
%
clouds,
%
prec.,
mm/h
press.,
hPa
HPBL,
m
4 december, sat
sat400:00+4sse34900 0.0 102063
03:00+3sse348917 0.0 102044
06:00+3sse338599 0.0 101927
09:00+6sse22685 0.0 101939
12:00+11sse444499 0.0 1017242
15:00+12se46465 0.0 1016183
18:00+8sse486252 0.0 1015135
21:00+7sse486997 0.0 1014138
5 december, sun
sun500:00+6se496895 0.0 1012143
03:00+5sse4667100 0.0 1012100
06:00+6sse3664100 0.0 101297
09:00+7s2354100 0.0 101345
12:00+9nnw2348100 0.0 1013180
15:00+8e355636 0.0 1013153
18:00+8se3458100 0.0 101477
21:00+8ssw4859100 0.0 1015159
6 december, mon
mon600:00+8sw4105927 0.0 1016178
03:00+8w4882100 0.0 1018165
06:00+8w3594100 0.0 1018160
09:00+8w2589100 0.1 1020186
12:00+9w2382100 0.0 1020218
15:00+11sw017776 0.0 1021292
18:00+9se3481100 0.0 102171
21:00+7s12605 0.0 102211
7 december, tue
tue700:00+7ese33685 0.0 102222
03:00+6sse46815 0.0 102280
06:00+6se4986100 0.0 1022153
09:00+7se5128210 0.0 1022318
12:00+12se813605 0.0 1020573
15:00+12ese8146150 0.0 1019701
18:00+9ese81770100 0.0 1018491
21:00+8ese9207542 0.0 1017614
8 december, wed
wed800:00+7ese9198776 0.0 1015687
03:00+8se101479100 0.1 1014837
06:00+8ese81380100 0.1 1012889
09:00+8ese71182100 0.1 1012915
12:00+9ese61079100 0.0 1010821
15:00+10ese5879100 0.0 1009499
18:00+9e4885100 0.0 1009361
21:00+9e368898 0.0 1009286